Location: Arborea
(39.7744°N, 8.5819°E)
Time: 11:50:44
(UTC+00:00)

Cosmos 1000 Rocket - Pass Details

Date: 05 June 2022
Orbit: 952 x 993 km, 82.9° (Epoch: 02 July)

Event Time Altitude Azimuth Distance (km) Brightness Sun altitude
Rises 02:55:51 0° 145° (SE) 3,687 7.5 -10.5°
Reaches altitude 10° 02:58:57 10° 131° (SE) 2,738 7.0 -10.1°
Maximum altitude 03:03:32 22° 84° (E) 2,018 7.0 -9.4°
Drops below altitude 10° 03:08:05 10° 37° (NE) 2,733 8.3 -8.7°
Sets 03:11:10 0° 22° (NNE) 3,677 8.7 -8.3°
